Weather History for Corpus Christi NAS, TX

Change the Weather History Date:

Saturday, October 22, 2011

  Actual Average Record
Temperature  
Mean Temperature 78 °F -  
Max Temperature 84 °F 80 °F 88 °F (2004)
Min Temperature 73 °F 66 °F 48 °F (1999)
Cooling Degree Days 14    
Growing Degree Days 28 (Base 50)    
Moisture  
Dew Point 65 °F    
Average Humidity 65    
Maximum Humidity 79    
Minimum Humidity 46    
Precipitation  
Precipitation 0.00 in - - ()
Sea Level Pressure  
Sea Level Pressure 30.03 in    
Wind  
Wind Speed 14 mph (SSE)    
Max Wind Speed 21 mph    
Max Gust Speed 28 mph    
Visibility 10 miles    
Events      
Averages and records for this station are not official NWS values.
T = Trace of Precipitation, MM = Missing Value Source: NWS Daily Summary

Daily Weather History Graph

Daily Weather History Graph

Search for Another Location

Airport:

Trip Planner

Search our weather history database for the weather conditions in past years. The results will help you decide how hot, cold, wet, or windy it might be!

Date:

Astronomy

Oct. 22, 2011 Rise Set
Actual Time 7:33 AM CDT 6:53 PM CDT
Civil Twilight 7:09 AM CDT 7:17 PM CDT
Nautical Twilight 6:42 AM CDT 7:44 PM CDT
Astronomical Twilight 6:14 AM CDT 8:11 PM CDT
Moon 2:56 AM CDT (10/22) 3:51 PM CDT (10/22)
Length of Visible Light 12h 07m
Length of Day
11h 20m
Waning Crescent, 23% of the Moon is Illuminated
Oct 22
Waning Crescent
Oct 26
New
Nov 2
First Quarter
Nov 10
Full
Nov 18
Last Quarter

Hourly Weather History & Observations

Time (CDT) Temp. Heat Index Dew Point Humidity Pressure Visibility Wind Dir Wind Speed Gust Speed Precip Events Conditions
12:56 AM 75.9 °F - 66.9 °F 74% 30.06 in 10.0 mi SSE 13.8 mph - N/A   Clear
1:56 AM 75.9 °F - 64.9 °F 69% 30.06 in 10.0 mi South 11.5 mph - N/A   Clear
2:56 AM 75.0 °F - 66.0 °F 73% 30.05 in 10.0 mi SSE 12.7 mph - N/A   Clear
3:56 AM 77.0 °F - 66.0 °F 69% 30.04 in 10.0 mi SSE 12.7 mph - N/A   Clear
4:56 AM 75.0 °F - 66.0 °F 73% 30.04 in 10.0 mi SSE 9.2 mph - N/A   Scattered Clouds
5:56 AM 75.0 °F - 64.9 °F 71% 30.04 in 10.0 mi SSE 9.2 mph - N/A   Clear
6:56 AM 73.9 °F - 66.9 °F 79% 30.06 in 10.0 mi SSE 8.1 mph - N/A   Partly Cloudy
7:56 AM 75.0 °F - 66.0 °F 73% 30.06 in 10.0 mi SSE 10.4 mph - N/A   Clear
8:56 AM 78.1 °F - 66.0 °F 66% 30.07 in 10.0 mi South 12.7 mph - N/A   Clear
9:56 AM 80.1 °F 82.1 °F 66.0 °F 62% 30.08 in 10.0 mi South 15.0 mph - N/A   Clear
10:56 AM 82.0 °F 83.4 °F 64.0 °F 54% 30.09 in 10.0 mi SSE 16.1 mph - N/A   Clear
11:56 AM 82.9 °F 84.6 °F 64.9 °F 54% 30.07 in 10.0 mi SSE 18.4 mph - N/A   Clear
12:56 PM 84.0 °F 86.3 °F 66.0 °F 55% 30.06 in 10.0 mi South 18.4 mph 24.2 mph N/A   Clear
1:56 PM 84.9 °F 85.4 °F 62.1 °F 46% 30.04 in 10.0 mi SSE 16.1 mph 27.6 mph N/A   Clear
2:56 PM 84.0 °F 85.8 °F 64.9 °F 53% 30.01 in 10.0 mi SSE 20.7 mph 26.5 mph N/A   Clear
3:56 PM 84.0 °F 84.9 °F 63.0 °F 49% 29.99 in 10.0 mi SSE 18.4 mph 24.2 mph N/A   Clear
4:56 PM 82.0 °F 83.4 °F 64.0 °F 54% 29.99 in 10.0 mi SSE 17.3 mph 24.2 mph N/A   Clear
5:56 PM 79.0 °F - 64.0 °F 60% 29.98 in 10.0 mi SSE 16.1 mph 23.0 mph N/A   Clear
6:56 PM 78.1 °F - 66.0 °F 66% 29.99 in 10.0 mi SSE 13.8 mph - N/A   Clear
7:56 PM 77.0 °F - 66.9 °F 71% 29.99 in 10.0 mi SSE 12.7 mph - N/A   Clear
8:56 PM 77.0 °F - 66.9 °F 71% 30.01 in 10.0 mi SSE 15.0 mph 20.7 mph N/A   Clear
9:56 PM 77.0 °F - 66.9 °F 71% 30.00 in 10.0 mi SSE 13.8 mph - N/A   Clear
10:56 PM 77.0 °F - 66.0 °F 69% 30.00 in 10.0 mi SSE 18.4 mph 23.0 mph N/A   Clear
11:56 PM 75.9 °F - 66.0 °F 71% 29.98 in 10.0 mi SSE 13.8 mph - N/A   Clear